When you browse on this site, cookies collect data to enhance your experience and personalize the content and advertising you see.
Visit our Privacy Policy to learn more. By continuing to use the site, you agree to this use of cookies and data.

Stündliche Wetter Bolshie Lozicy

Heute, 23 September, Mittwoch

Zeit Temperatur Niederschläge Wind Luftdruck Luftfeuchtigkeit
00:00 +13°C° 0 mm 2 m/S 744 mmHg 87%
01:00 +13°C° 0 mm 2 m/S 744 mmHg 88%
02:00 +12°C° 0 mm 2 m/S 744 mmHg 89%
03:00 +12°C° 0 mm 2 m/S 744 mmHg 89%
04:00 +12°C° 0 mm 2 m/S 744 mmHg 90%
05:00 +12°C° 0 mm 2 m/S 744 mmHg 90%
06:00 +13°C° 0 mm 2 m/S 744 mmHg 87%
07:00 +14°C° 0 mm 2 m/S 744 mmHg 83%
08:00 +15°C° 0 mm 2 m/S 744 mmHg 80%
09:00 +16°C° 0 mm 3 m/S 744 mmHg 74%
10:00 +18°C° 0 mm 3 m/S 744 mmHg 69%
11:00 +20°C° 0 mm 3 m/S 744 mmHg 63%
12:00 +21°C° 0 mm 4 m/S 744 mmHg 58%
13:00 +21°C° 0 mm 4 m/S 744 mmHg 52%
14:00 +22°C° 0 mm 4 m/S 744 mmHg 47%
15:00 +21°C° 0 mm 4 m/S 743 mmHg 51%
16:00 +20°C° 0 mm 3 m/S 743 mmHg 56%
17:00 +19°C° 0 mm 3 m/S 743 mmHg 61%
18:00 +17°C° 0 mm 3 m/S 743 mmHg 61%
19:00 +16°C° 0 mm 3 m/S 743 mmHg 62%
20:00 +13°C° 0 mm 3 m/S 743 mmHg 62%
21:00 +13°C° 0 mm 3 m/S 743 mmHg 63%
22:00 +12°C° 0 mm 3 m/S 743 mmHg 63%
23:00 +12°C° 0 mm 3 m/S 743 mmHg 64%

Morgen, 24 September, Donnerstag

Zeit Temperatur Niederschläge Wind Luftdruck Luftfeuchtigkeit
00:00 +11°C° 0 mm 3 m/S 743 mmHg 64%
01:00 +11°C° 0 mm 3 m/S 743 mmHg 63%
02:00 +10°C° 0 mm 3 m/S 743 mmHg 62%
03:00 +10°C° 0 mm 3 m/S 743 mmHg 62%
04:00 +10°C° 0 mm 3 m/S 743 mmHg 62%
05:00 +9°C° 0 mm 3 m/S 743 mmHg 62%
06:00 +10°C° 0 mm 3 m/S 743 mmHg 61%
07:00 +11°C° 0 mm 3 m/S 743 mmHg 61%
08:00 +12°C° 0 mm 4 m/S 743 mmHg 61%
09:00 +13°C° 0 mm 4 m/S 743 mmHg 58%
10:00 +15°C° 0 mm 4 m/S 743 mmHg 54%
11:00 +18°C° 0 mm 4 m/S 743 mmHg 51%
12:00 +19°C° 0 mm 4 m/S 743 mmHg 50%
13:00 +20°C° 0 mm 4 m/S 743 mmHg 49%
14:00 +21°C° 0 mm 4 m/S 743 mmHg 48%
15:00 +19°C° 0 mm 4 m/S 743 mmHg 54%
16:00 +18°C° 0 mm 3 m/S 743 mmHg 60%
17:00 +17°C° 0 mm 3 m/S 742 mmHg 65%
18:00 +16°C° 0 mm 3 m/S 743 mmHg 67%
19:00 +14°C° 0 mm 3 m/S 743 mmHg 69%
20:00 +13°C° 0 mm 3 m/S 743 mmHg 70%
21:00 +12°C° 0 mm 3 m/S 743 mmHg 69%
22:00 +12°C° 0 mm 3 m/S 743 mmHg 68%
23:00 +12°C° 0 mm 3 m/S 743 mmHg 67%

übermorgen, 25 September, Freitag

Zeit Temperatur Niederschläge Wind Luftdruck Luftfeuchtigkeit
00:00 +11°C° 0 mm 3 m/S 743 mmHg 66%
01:00 +11°C° 0 mm 3 m/S 743 mmHg 66%
02:00 +11°C° 0 mm 3 m/S 742 mmHg 65%
03:00 +11°C° 0 mm 3 m/S 742 mmHg 66%
04:00 +10°C° 0 mm 3 m/S 742 mmHg 66%
05:00 +10°C° 0 mm 3 m/S 742 mmHg 67%
06:00 +11°C° 0 mm 3 m/S 742 mmHg 66%
07:00 +11°C° 0 mm 3 m/S 742 mmHg 65%
08:00 +12°C° 0 mm 4 m/S 742 mmHg 64%
09:00 +14°C° 0 mm 4 m/S 742 mmHg 61%
10:00 +15°C° 0 mm 4 m/S 742 mmHg 58%
11:00 +18°C° 0 mm 4 m/S 741 mmHg 55%
12:00 +19°C° 0 mm 4 m/S 741 mmHg 54%
13:00 +20°C° 0 mm 5 m/S 741 mmHg 53%
14:00 +21°C° 0 mm 5 m/S 741 mmHg 53%
15:00 +20°C° 0 mm 5 m/S 741 mmHg 58%
16:00 +19°C° 0 mm 4 m/S 740 mmHg 63%
17:00 +19°C° 0 mm 4 m/S 740 mmHg 69%
18:00 +18°C° 0 mm 4 m/S 740 mmHg 70%
19:00 +16°C° 0 mm 5 m/S 740 mmHg 72%
20:00 +16°C° 0 mm 5 m/S 740 mmHg 74%
21:00 +15°C° 0 mm 5 m/S 740 mmHg 71%
22:00 +15°C° 0 mm 5 m/S 740 mmHg 69%
23:00 +15°C° 0 mm 5 m/S 740 mmHg 66%

26 September, Samstag

Zeit Temperatur Niederschläge Wind Luftdruck Luftfeuchtigkeit
00:00 +14°C° 0 mm 5 m/S 740 mmHg 65%
01:00 +14°C° 0 mm 5 m/S 739 mmHg 63%
02:00 +14°C° 0 mm 5 m/S 739 mmHg 62%
03:00 +13°C° 0 mm 5 m/S 739 mmHg 61%
04:00 +13°C° 0 mm 5 m/S 739 mmHg 60%
05:00 +13°C° 0 mm 5 m/S 739 mmHg 60%
06:00 +14°C° 0 mm 5 m/S 739 mmHg 61%
07:00 +14°C° 0 mm 6 m/S 739 mmHg 63%
08:00 +14°C° 0 mm 6 m/S 739 mmHg 64%
09:00 +16°C° 0 mm 6 m/S 740 mmHg 61%
10:00 +19°C° 0 mm 6 m/S 740 mmHg 58%
11:00 +20°C° 0 mm 7 m/S 740 mmHg 55%
12:00 +21°C° 0 mm 7 m/S 740 mmHg 54%
13:00 +22°C° 0 mm 7 m/S 740 mmHg 52%
14:00 +23°C° 0 mm 7 m/S 740 mmHg 50%
15:00 +22°C° 0 mm 7 m/S 740 mmHg 55%
16:00 +20°C° 0 mm 6 m/S 740 mmHg 59%
17:00 +19°C° 0 mm 6 m/S 740 mmHg 63%
18:00 +19°C° 0 mm 6 m/S 740 mmHg 63%
19:00 +17°C° 0 mm 7 m/S 740 mmHg 62%
20:00 +16°C° 0 mm 7 m/S 740 mmHg 62%
21:00 +16°C° 0 mm 7 m/S 740 mmHg 62%
22:00 +16°C° 0 mm 7 m/S 740 mmHg 61%
23:00 +15°C° 0 mm 7 m/S 740 mmHg 61%

27 September, Sonntag

Zeit Temperatur Niederschläge Wind Luftdruck Luftfeuchtigkeit
00:00 +15°C° 0 mm 7 m/S 740 mmHg 61%
01:00 +14°C° 0 mm 7 m/S 739 mmHg 62%
02:00 +14°C° 0 mm 7 m/S 739 mmHg 62%
03:00 +14°C° 0 mm 7 m/S 739 mmHg 60%
04:00 +14°C° 0 mm 7 m/S 739 mmHg 59%
05:00 +14°C° 0 mm 7 m/S 739 mmHg 57%
06:00 +14°C° 0 mm 7 m/S 739 mmHg 58%
07:00 +13°C° 0 mm 8 m/S 739 mmHg 59%
08:00 +15°C° 0 mm 8 m/S 739 mmHg 60%
09:00 +16°C° 0 mm 8 m/S 740 mmHg 58%
10:00 +17°C° 0 mm 9 m/S 740 mmHg 56%
11:00 +19°C° 0 mm 9 m/S 740 mmHg 54%
12:00 +19°C° 0 mm 9 m/S 740 mmHg 52%
13:00 +19°C° 0 mm 9 m/S 740 mmHg 50%
14:00 +21°C° 0 mm 9 m/S 740 mmHg 49%
15:00 +19°C° 0 mm 9 m/S 739 mmHg 50%
16:00 +18°C° 0 mm 8 m/S 739 mmHg 51%
17:00 +17°C° 0 mm 7 m/S 739 mmHg 52%
18:00 +16°C° 0 mm 7 m/S 739 mmHg 51%
19:00 +16°C° 0 mm 7 m/S 739 mmHg 49%
20:00 +16°C° 0 mm 7 m/S 739 mmHg 48%
21:00 +15°C° 0 mm 7 m/S 739 mmHg 49%
22:00 +15°C° 0 mm 7 m/S 739 mmHg 50%
23:00 +15°C° 0 mm 7 m/S 738 mmHg 52%

28 September, Montag

Zeit Temperatur Niederschläge Wind Luftdruck Luftfeuchtigkeit
00:00 +14°C° 0.4 mm 6 m/S 738 mmHg 60%
01:00 +14°C° 0.4 mm 6 m/S 738 mmHg 68%
02:00 +13°C° 0.4 mm 6 m/S 738 mmHg 76%
03:00 +13°C° 0.7 mm 6 m/S 738 mmHg 80%
04:00 +13°C° 0.7 mm 6 m/S 738 mmHg 84%
05:00 +13°C° 0.7 mm 6 m/S 738 mmHg 88%
06:00 +13°C° 0.6 mm 6 m/S 738 mmHg 90%
07:00 +12°C° 0.6 mm 5 m/S 739 mmHg 91%
08:00 +12°C° 0.6 mm 5 m/S 739 mmHg 92%
09:00 +13°C° 0.1 mm 4 m/S 739 mmHg 90%
10:00 +13°C° 0.1 mm 4 m/S 740 mmHg 89%
11:00 +13°C° 0.1 mm 4 m/S 740 mmHg 87%
12:00 +14°C° 0.1 mm 4 m/S 741 mmHg 82%
13:00 +15°C° 0.1 mm 4 m/S 741 mmHg 77%
14:00 +15°C° 0.1 mm 4 m/S 741 mmHg 72%
15:00 +16°C° 0 mm 3 m/S 741 mmHg 74%
16:00 +14°C° 0 mm 3 m/S 741 mmHg 77%
17:00 +14°C° 0 mm 2 m/S 742 mmHg 80%
18:00 +13°C° 0 mm 2 m/S 742 mmHg 82%
19:00 +13°C° 0 mm 2 m/S 742 mmHg 84%
20:00 +12°C° 0 mm 2 m/S 743 mmHg 86%
21:00 +10°C° 0 mm 2 m/S 743 mmHg 85%
22:00 +10°C° 0 mm 2 m/S 743 mmHg 83%
23:00 +10°C° 0 mm 2 m/S 744 mmHg 81%
Mehr zeigen